Akron, CO

8:23 AM MST on November 21, 2019 (GMT -0700)
Akron-Washington County

Weather History for KAKO - October, 2019

Change the Weather History Date:

Wednesday, October 23, 2019

  Actual Average Record
Temperature  
Mean Temperature 40 °F 48 °F  
Max Temperature 52 °F 61 °F 86 °F (2003)
Min Temperature 27 °F 35 °F 17 °F (1938)
Degree Days  
Heating Degree Days 25    
Month to date heating degree days 374  
Cooling Degree Days 0    
Month to date cooling degree days 2  
Moisture  
Dew Point 26 °F    
Average Humidity 58    
Maximum Humidity 89    
Minimum Humidity 26    
Precipitation  
Precipitation 0.00 in 0.03 in 0.36 in (1941)
Month to date precipitation 0.06 0.91  
Year to date precipitation 15.16 15.56  
Snow  
Snow 0.00 in - - ()
Snow Depth 0.00 in    
Sea Level Pressure  
Sea Level Pressure 30.07 in    
Wind  
Wind Speed 15 mph (NNW)    
Max Wind Speed 36 mph    
Max Gust Speed 46 mph    
Visibility 10 miles    
Events      
T = Trace of Precipitation, MM = Missing Value Source: NWS Daily Summary

Daily Weather History Graph

Daily Weather History Graph

Search for Another Location

Airport or City:

Astronomy

Oct. 23, 2019 Rise Set
Actual Time 7:11 AM MDT 6:01 PM MDT
Civil Twilight 6:44 AM MDT 6:29 PM MDT
Nautical Twilight 6:12 AM MDT 7:01 PM MDT
Astronomical Twilight 5:41 AM MDT 7:32 PM MDT
Moon 1:32 AM MDT (10/23) 3:54 PM MDT (10/23)
Length of Visible Light 11h 45m
Length of Day
10h 49m
Waning Crescent, 26% of the Moon is Illuminated
Oct 23
Waning Crescent
Oct 27
New
Nov 4
First Quarter
Nov 12
Full
Nov 19
Last Quarter

Hourly Weather History & Observations

Time (MDT) Temp. Windchill Dew Point Humidity Pressure Visibility Wind Dir Wind Speed Gust Speed Precip Events Conditions
12:53 AM 46.9 °F - 27.0 °F 46% 29.84 in 10.0 mi WSW 13.8 mph - N/A   Clear
1:53 AM 46.0 °F 41.0 °F 27.0 °F 47% 29.82 in 10.0 mi SW 10.4 mph - N/A   Clear
2:53 AM 43.0 °F 36.8 °F 26.1 °F 51% 29.83 in 10.0 mi West 11.5 mph - N/A   Clear
3:53 AM 45.0 °F 38.5 °F 26.1 °F 48% 29.82 in 10.0 mi West 13.8 mph - N/A   Partly Cloudy
4:14 AM 45.0 °F 36.4 °F 34.0 °F 65% 29.95 in 10.0 mi NNW 23.0 mph 32.2 mph N/A   Mostly Cloudy
4:53 AM 41.0 °F 29.3 °F 34.0 °F 76% 29.94 in 10.0 mi North 33.4 mph 46.0 mph N/A   Mostly Cloudy
5:00 AM 39.9 °F 28.6 °F 33.1 °F 77% 30.00 in 10.0 mi North 28.8 mph 44.9 mph N/A   Scattered Clouds
5:53 AM 36.0 °F 27.1 °F 32.0 °F 86% 29.99 in 10.0 mi North 13.8 mph - N/A   Clear
6:53 AM 33.1 °F 25.5 °F 30.0 °F 89% 30.00 in 10.0 mi NW 9.2 mph - N/A   Partly Cloudy
7:53 AM 37.0 °F 30.4 °F 32.0 °F 82% 30.01 in 10.0 mi NW 9.2 mph - N/A   Mostly Cloudy
8:53 AM 42.1 °F 34.5 °F 30.9 °F 65% 30.03 in 10.0 mi NNW 15.0 mph - N/A   Overcast
9:53 AM 46.0 °F 39.9 °F 30.0 °F 54% 30.03 in 10.0 mi NW 13.8 mph - N/A   Overcast
10:53 AM 48.9 °F - 28.0 °F 44% 30.00 in 10.0 mi West 9.2 mph - N/A   Partly Cloudy
11:53 AM 51.1 °F - 18.0 °F 27% 30.00 in 10.0 mi NNW 18.4 mph 28.8 mph N/A   Overcast
12:53 PM 51.1 °F - 21.9 °F 32% 30.00 in 10.0 mi NNW 17.3 mph 26.5 mph N/A   Overcast
1:53 PM 51.1 °F - 21.0 °F 31% 30.01 in 10.0 mi NNW 19.6 mph 28.8 mph N/A   Overcast
2:53 PM 50.0 °F - 21.9 °F 33% 30.03 in 10.0 mi NNW 21.9 mph 33.4 mph N/A   Overcast
3:53 PM 46.9 °F - 25.0 °F 42% 30.06 in 10.0 mi North 29.9 mph 42.6 mph N/A   Mostly Cloudy
4:53 PM 45.0 °F 36.9 °F 27.0 °F 49% 30.12 in 10.0 mi North 20.7 mph 36.8 mph N/A   Overcast
5:53 PM 42.1 °F 32.6 °F 25.0 °F 51% 30.21 in 10.0 mi NNE 23.0 mph 32.2 mph N/A   Overcast
6:53 PM 36.0 °F 26.7 °F 24.1 °F 62% 30.28 in 10.0 mi NE 15.0 mph 25.3 mph N/A   Clear
7:53 PM 34.0 °F 28.0 °F 24.1 °F 67% 30.36 in 10.0 mi North 6.9 mph - N/A   Overcast
8:53 PM 33.1 °F 26.1 °F 23.0 °F 66% 30.32 in 10.0 mi NE 8.1 mph - N/A   Overcast
9:53 PM 30.9 °F 27.5 °F 23.0 °F 72% 30.37 in 10.0 mi ENE 3.5 mph - N/A   Mostly Cloudy
10:53 PM 28.9 °F - 21.9 °F 75% 30.38 in 10.0 mi Calm Calm - N/A   Partly Cloudy
11:53 PM 28.9 °F 22.8 °F 21.9 °F 75% 30.38 in 10.0 mi North 5.8 mph - N/A   Clear